Simultaneous Nadir Overpasses (SNOs) Predictions

Prediction of SNOs between GOES-14 and NOAA-20 Satellite Orbit:

Table of predicted SNOs for the next 14.0 days since TLE Epoch: 7/16/2022
Index Date Time (GOES-14) GOES-14 Lat,Lon NOAA-20 Lat,Lon Distance(km) Time Diff (sec)
1 07/17/2022 08:30:23 -0.29,-104.48 0.18,-106.61 243.21 80
2 07/18/2022 08:14:18 -0.27,-104.47 -0.83,-102.08 273.42 80
3 07/19/2022 20:33:34 0.30,-104.76 -0.29,-107.40 300.23 80
4 07/20/2022 20:17:28 0.29,-104.76 0.72,-102.86 217.04 80
5 07/22/2022 08:39:15 -0.33,-104.48 0.48,-108.12 414.86 80
6 07/23/2022 08:20:29 -0.31,-104.48 -0.53,-103.59 101.64 80
7 07/24/2022 20:39:45 0.35,-104.75 -0.58,-108.91 473.51 80
8 07/25/2022 20:23:40 0.34,-104.75 0.43,-104.37 43.65 80
9 07/28/2022 08:26:41 -0.36,-104.48 -0.25,-105.10 70.61 80
10 07/29/2022 08:06:03 -0.34,-104.47 -1.20,-100.56 445.88 31
